Location: Unspecified
(0.0000°N, 0.0000°E)
Time: 14:10:37
(UTC+00:00)

Vanguard 3 - Pass Details

Date: 26 November 2019
Orbit: 508 x 3263 km, 33.3° (Epoch: 08 December)

Event Time Altitude Azimuth Distance (km) Brightness Sun altitude
Rises 14:42:11 0° 311° (NW) 7,020 12.1 42.4°
Reaches altitude 10° 14:49:47 10° 328° (NNW) 6,177 11.8 40.8°
Maximum altitude 15:01:35 18° 5° (N) 5,391 11.2 38.2°
Drops below altitude 10° 15:12:16 10° 43° (NE) 5,576 11.0 35.8°
Sets 15:18:26 0° 61° (ENE) 6,135 11.1 34.4°
